Погода в Нестерове

Россия / Вологодская область     59°40′58″N   39°59′27″E
темп.,
°C
ветер,
м/с
пор.,
м/с
влажн.,
%
обл.,
%
осадки,
мм/ч
давл.,
гПа
погр.,
м
21 апреля, ср
ср2100:00+3вюв41166100 0.0 1021386
03:00+2в41171100 0.0 1019405
06:00+3в51465100 0.0 1014625
09:00+2вюв61681100 0.4 1011883
12:00+2вюв61595100 1.6 1008920
15:00+3вюв71793100 2.1 10051019
18:00+4ю61197100 2.2 10051048
21:00+3ю5991100 2.6 10061065
22 апреля, чт
чт2200:00+2ю41093100 0.1 1007743
03:00+2ю41096100 0.1 1009645
06:00+2ю4994100 0.0 1009457
09:00+5ю51085100 0.1 1010750
12:00+7ю51082100 0.1 10111028
15:00+9ю6107794 0.2 10111163
18:00+7ююз488397 0.3 1013967
21:00+5ююв39926 0.3 1014194
23 апреля, пт
пт2300:00+5ююв4119618 0.0 1014351
03:00+4юв311968 0.0 1014296
06:00+5юв4139410 0.0 1013434
09:00+9ююв5118291 0.0 1013677
12:00+14ю61065100 0.1 10131446
15:00+13ю5107091 1.4 10131372
18:00+12ю51272100 1.9 1013888
21:00+10ююв4138079 3.0 1013682
24 апреля, сб
сб2400:00+7юв389469 0.3 1013199
03:00+7юв4139099 0.3 1012454
06:00+7юв5158654 0.0 1011487
09:00+11юв6137129 0.0 1009922
12:00+14юв7115514 0.3 10071924
15:00+14юв6115732 0.7 10061808
18:00+11вюв61370100 1.1 10051413
21:00+9вюв6147391 1.1 1003923
25 апреля, вс
вс2500:00+7вюв61481100 0.0 1001777
03:00+7вюв51184100 0.2 9991108
06:00+3ююз4697100 1.7 1000360
09:00+2юз3899100 3.3 1001507
12:00+3зюз51089100 1.5 1002882
15:00+6зюз4765100 1.9 10031419
18:00+5зюз367478 0.6 1003882
21:00+2ююз289244 0.9 1005211